This is the latest recevied weather packets stored in our database for station/object WAYLND-WX. If no packets are shown the sender has not sent any weather packets the latest 10 day(s).
| Time | Temp. | Humidity | Pressure | Rain* | Wind** | Luminosity | Snow |
|---|---|---|---|---|---|---|---|
| 1777644079 | 6.11° C | 56% | 988.2 hPa | 0 mm | - | - | - |
| 1777643141 | 5.56° C | 60% | 987.7 hPa | 0 mm | - | - | - |
| 1777642259 | 5.56° C | 60% | 987.7 hPa | 0 mm | - | - | - |
| 1777641341 | 5° C | 60% | 987.6 hPa | 0 mm | - | - | - |
| 1777640471 | 4.44° C | 60% | 987.6 hPa | 0 mm | - | - | - |
| 1777638658 | 4.44° C | 69% | 987.2 hPa | 0 mm | - | - | - |
| 1777637741 | 3.89° C | 69% | 987.2 hPa | 0 mm | - | - | - |
| 1777635057 | 3.33° C | 93% | 986.6 hPa | 0 mm | - | - | - |
| 1777634141 | 3.33° C | 93% | 986.6 hPa | 0 mm | - | - | - |
| 1777633270 | 3.33° C | 93% | 986.6 hPa | 0 mm | - | - | - |
| 1777632340 | 2.78° C | 93% | 986.2 hPa | 0 mm | - | - | - |
| 1777631460 | 2.78° C | 94% | 986.8 hPa | 0 mm | - | - | - |
| 1777630541 | 3.89° C | 94% | 986.9 hPa | 0 mm | - | - | - |
| 1777629674 | 3.89° C | 94% | 986.9 hPa | 0 mm | - | - | - |
| 1777627857 | 3.89° C | 94% | 987.1 hPa | 0 mm | - | - | - |
| 1777626940 | 2.78° C | 94% | 987.1 hPa | 0 mm | - | - | - |
| 1777626066 | 2.78° C | 94% | 987.1 hPa | 0 mm | - | - | - |
| 1777625140 | 2.78° C | 89% | 986.9 hPa | 0 mm | - | - | - |
| 1777624254 | 2.78° C | 87% | 986.4 hPa | 0 mm | - | - | - |
| 1777623340 | 3.89° C | 87% | 986.5 hPa | 0 mm | - | - | - |
| 1777622469 | 3.89° C | 87% | 986.5 hPa | 0 mm | - | - | - |
| 1777621540 | 3.89° C | 86% | 986.8 hPa | 0 mm | - | - | - |
| 1777620658 | 3.89° C | 86% | 986.8 hPa | 0 mm | - | - | - |
| 1777619740 | 3.89° C | 86% | 986.8 hPa | 0 mm | - | - | - |
| 1777618869 | 3.89° C | 86% | 986.8 hPa | 0 mm | - | - | - |
* Rain latest hour (hover to see other rain measurements)
** Current wind speed in m/s (hover to see current wind gust speed)